Hourly Data Report for October 06, 2014

All times are specified in Local Standard Time (LST). Add 1 hour to adjust for Daylight Saving Time where and when it is observed.

QIKIQTARJUAQ A
NUNAVUT

67°32'48.000" N
64°01'54.000" W
5.50 m
2400577
YVM

Download Data

Hourly Data (October 2014)
Hourly Data Report for October 6, 2014
Temp Definition
°C
Dew Point Temp Definition
°C
Rel Hum Definition
%
Wind Dir Definition
10's deg

Wind Spd Definition
km/h
Visibility Definition
km
Stn Press Definition
kPa
Hmdx Definition


Wind Chill Definition


Weather Definition


TIME
00:00 Legend Double Dagger -2.3 -5.0 82 15 5 16.1 102.61   -4 LegendNANA
01:00 Legend Double Dagger -1.9 -4.3 84 22 4 16.1 102.63   -3 LegendNANA
02:00 Legend Double Dagger -1.8 -4.8 80 LegendMM 4 16.1 102.61   -3 LegendNANA
03:00 Legend Double Dagger -1.7 -4.5 81 LegendMM 4 16.1 102.61   -3 LegendNANA
04:00 Legend Double Dagger -1.8 -4.5 82   0 16.1 102.62     LegendNANA
05:00 Legend Double Dagger -1.9 -3.9 86 14 4 16.1 102.63   -3 LegendNANA
06:00 Legend Double Dagger -1.4 -3.8 84 12 4 16.1 102.66   -3 LegendNANA
07:00 Legend Double Dagger -1.6 -3.8 85 14 5 16.1 102.65   -3 LegendNANA
08:00 Legend Double Dagger -1.1 -3.3 85 13 5 16.1 102.64   -3 LegendNANA
09:00 Legend Double Dagger -1.2 -3.2 86   0 16.1 102.65     LegendNANA
10:00 Legend Double Dagger -0.9 -3.4 83   0 16.1 102.65     LegendNANA
11:00 Legend Double Dagger -1.0 -3.1 86   0 16.1 102.64     LegendNANA
12:00 Legend Double Dagger -1.2 -3.3 86   0 16.1 102.64     LegendNANA
13:00 Legend Double Dagger -0.6 -2.9 85 11 4 16.1 102.68   -2 LegendNANA
14:00 Legend Double Dagger -0.4 -2.5 86 22 4 16.1 102.71   -2 LegendNANA
15:00 Legend Double Dagger -0.9 -2.6 88   0 16.1 102.71     LegendNANA
16:00 Legend Double Dagger -0.8 -2.9 86 13 4 16.1 102.75   -2 LegendNANA
17:00 Legend Double Dagger -0.9 -3.0 86 5 4 16.1 102.77   -2 LegendNANA
18:00 Legend Double Dagger -0.9 -1.6 95 15 8 3.2 102.81   -4 Snow
19:00 Legend Double Dagger -0.5 -2.1 89   0 12.9 102.83     LegendNANA
20:00 Legend Double Dagger -0.5 -2.3 88   0 16.1 102.81     LegendNANA
21:00 Legend Double Dagger -1.0 -2.6 89   0 16.1 102.80     LegendNANA
22:00 Legend Double Dagger -1.1 -2.5 90   0 16.1 102.78     LegendNANA
23:00 Legend Double Dagger -0.7 -2.0 91 10 4 9.7 102.77   -2 Snow

Notes on Data Quality.

Legend

  • E = Estimated
  • M = Missing
  • NA = Not Available
  • ‡ = Partner data that is not subject to review by the National Climate Archives
Date modified: